When you browse on this site, cookies collect data to enhance your experience and personalize the content and advertising you see.
Visit our Privacy Policy to learn more. By continuing to use the site, you agree to this use of cookies and data.
  • în România
  • Lista ţărilor
  • Pe 7 zile
  • Temperatura apei
  • Hartă satelitară
  • Meteo pe hartă
  • Widget-uri
  • user-avatar
    Intrare

    Meteo pe oră la Gubin

    Astăzi, 21 Martie, Joi

    Timp Temperatura Precipitaţii Vânt Presiune Umiditate
    00:00 +5°C° 0 mm 3 m/s 771 mmHg 74%
    01:00 +7°C° 0 mm 2 m/s 771 mmHg 70%
    02:00 +6°C° 0 mm 2 m/s 771 mmHg 74%
    03:00 +6°C° 0 mm 2 m/s 771 mmHg 77%
    04:00 +6°C° 0 mm 2 m/s 771 mmHg 80%
    05:00 +6°C° 0 mm 2 m/s 771 mmHg 82%
    06:00 +6°C° 0 mm 2 m/s 771 mmHg 84%
    07:00 +6°C° 0 mm 2 m/s 771 mmHg 86%
    08:00 +8°C° 0 mm 3 m/s 771 mmHg 81%
    09:00 +10°C° 0 mm 3 m/s 771 mmHg 77%
    10:00 +11°C° 0 mm 3 m/s 771 mmHg 73%
    11:00 +12°C° 0 mm 3 m/s 771 mmHg 71%
    12:00 +12°C° 0 mm 3 m/s 771 mmHg 69%
    13:00 +13°C° 0 mm 3 m/s 771 mmHg 67%
    14:00 +13°C° 0 mm 3 m/s 770 mmHg 66%
    15:00 +14°C° 0 mm 3 m/s 770 mmHg 65%
    16:00 +15°C° 0 mm 2 m/s 770 mmHg 64%
    17:00 +14°C° 0 mm 2 m/s 770 mmHg 71%
    18:00 +13°C° 0 mm 2 m/s 770 mmHg 78%
    19:00 +11°C° 0 mm 1 m/s 770 mmHg 84%
    20:00 +10°C° 0 mm 2 m/s 770 mmHg 86%
    21:00 +10°C° 0 mm 2 m/s 770 mmHg 89%
    22:00 +9°C° 0 mm 2 m/s 770 mmHg 91%
    23:00 +9°C° 0 mm 2 m/s 770 mmHg 92%

    Mâine, 22 Martie, Vineri

    Timp Temperatura Precipitaţii Vânt Presiune Umiditate
    00:00 +9°C° 0 mm 2 m/s 770 mmHg 92%
    01:00 +8°C° 0 mm 2 m/s 770 mmHg 93%
    02:00 +9°C° 0 mm 1 m/s 770 mmHg 93%
    03:00 +9°C° 0 mm 1 m/s 770 mmHg 94%
    04:00 +9°C° 0 mm 1 m/s 770 mmHg 94%
    05:00 +9°C° 0 mm 1 m/s 770 mmHg 95%
    06:00 +9°C° 0 mm 1 m/s 771 mmHg 95%
    07:00 +8°C° 0 mm 0 m/s 771 mmHg 96%
    08:00 +10°C° 0 mm 0 m/s 771 mmHg 88%
    09:00 +12°C° 0 mm 0 m/s 771 mmHg 80%
    10:00 +14°C° 0 mm 0 m/s 771 mmHg 72%
    11:00 +15°C° 0 mm 0 m/s 771 mmHg 66%
    12:00 +17°C° 0 mm 0 m/s 770 mmHg 61%
    13:00 +18°C° 0 mm 0 m/s 770 mmHg 56%
    14:00 +18°C° 0 mm 0 m/s 769 mmHg 55%
    15:00 +20°C° 0 mm 1 m/s 769 mmHg 55%
    16:00 +20°C° 0 mm 1 m/s 768 mmHg 55%
    17:00 +18°C° 0 mm 1 m/s 768 mmHg 62%
    18:00 +15°C° 0 mm 2 m/s 768 mmHg 69%
    19:00 +14°C° 0 mm 2 m/s 768 mmHg 76%
    20:00 +13°C° 0 mm 2 m/s 768 mmHg 81%
    21:00 +12°C° 0 mm 2 m/s 768 mmHg 85%
    22:00 +12°C° 0 mm 2 m/s 768 mmHg 89%
    23:00 +10°C° 0 mm 2 m/s 768 mmHg 90%

    Poimâine, 23 Martie, Sâmbătă

    Timp Temperatura Precipitaţii Vânt Presiune Umiditate
    00:00 +10°C° 0 mm 2 m/s 767 mmHg 91%
    01:00 +10°C° 0 mm 2 m/s 767 mmHg 91%
    02:00 +10°C° 0 mm 2 m/s 767 mmHg 90%
    03:00 +9°C° 0 mm 2 m/s 766 mmHg 90%
    04:00 +9°C° 0 mm 2 m/s 766 mmHg 89%
    05:00 +9°C° 0 mm 2 m/s 766 mmHg 88%
    06:00 +9°C° 0 mm 2 m/s 766 mmHg 87%
    07:00 +9°C° 0 mm 2 m/s 766 mmHg 86%
    08:00 +12°C° 0 mm 2 m/s 766 mmHg 78%
    09:00 +14°C° 0 mm 2 m/s 766 mmHg 70%
    10:00 +16°C° 0 mm 2 m/s 765 mmHg 62%
    11:00 +18°C° 0 mm 2 m/s 765 mmHg 58%
    12:00 +19°C° 0 mm 2 m/s 765 mmHg 54%
    13:00 +20°C° 0 mm 2 m/s 765 mmHg 50%
    14:00 +20°C° 0 mm 2 m/s 765 mmHg 50%
    15:00 +20°C° 0 mm 3 m/s 764 mmHg 51%
    16:00 +20°C° 0 mm 3 m/s 764 mmHg 52%
    17:00 +18°C° 0.1 mm 3 m/s 765 mmHg 61%
    18:00 +15°C° 0.1 mm 4 m/s 765 mmHg 69%
    19:00 +13°C° 0.1 mm 5 m/s 765 mmHg 77%
    20:00 +12°C° 0 mm 4 m/s 766 mmHg 78%
    21:00 +10°C° 0 mm 4 m/s 766 mmHg 79%
    22:00 +8°C° 0 mm 4 m/s 767 mmHg 80%
    23:00 +7°C° 0 mm 4 m/s 767 mmHg 75%

    24 Martie, Duminică

    Timp Temperatura Precipitaţii Vânt Presiune Umiditate
    00:00 +7°C° 0 mm 3 m/s 767 mmHg 70%
    01:00 +5°C° 0 mm 3 m/s 768 mmHg 65%
    02:00 +5°C° 0 mm 3 m/s 768 mmHg 65%
    03:00 +5°C° 0 mm 2 m/s 768 mmHg 66%
    04:00 +4°C° 0 mm 2 m/s 768 mmHg 66%
    05:00 +4°C° 0 mm 2 m/s 768 mmHg 66%
    06:00 +4°C° 0 mm 2 m/s 768 mmHg 66%
    07:00 +4°C° 0 mm 2 m/s 768 mmHg 65%
    08:00 +6°C° 0 mm 2 m/s 768 mmHg 59%
    09:00 +7°C° 0 mm 2 m/s 767 mmHg 53%
    10:00 +9°C° 0 mm 2 m/s 767 mmHg 46%
    11:00 +10°C° 0 mm 2 m/s 767 mmHg 43%
    12:00 +12°C° 0 mm 2 m/s 766 mmHg 39%
    13:00 +13°C° 0 mm 1 m/s 765 mmHg 35%
    14:00 +13°C° 0 mm 1 m/s 765 mmHg 35%
    15:00 +13°C° 0 mm 1 m/s 764 mmHg 36%
    16:00 +13°C° 0 mm 1 m/s 763 mmHg 36%
    17:00 +12°C° 0 mm 2 m/s 763 mmHg 41%
    18:00 +10°C° 0 mm 2 m/s 763 mmHg 45%
    19:00 +9°C° 0 mm 3 m/s 763 mmHg 50%
    20:00 +8°C° 0.1 mm 2 m/s 763 mmHg 54%
    21:00 +8°C° 0.1 mm 2 m/s 763 mmHg 57%
    22:00 +9°C° 0.1 mm 1 m/s 763 mmHg 60%
    23:00 +7°C° 0 mm 2 m/s 763 mmHg 64%

    25 Martie, Luni

    Timp Temperatura Precipitaţii Vânt Presiune Umiditate
    00:00 +6°C° 0 mm 2 m/s 763 mmHg 67%
    01:00 +5°C° 0 mm 2 m/s 763 mmHg 71%
    02:00 +4°C° 0 mm 2 m/s 762 mmHg 72%
    03:00 +4°C° 0 mm 2 m/s 762 mmHg 74%
    04:00 +3°C° 0 mm 2 m/s 762 mmHg 75%
    05:00 +3°C° 0 mm 2 m/s 762 mmHg 75%
    06:00 +3°C° 0 mm 3 m/s 762 mmHg 74%
    07:00 +3°C° 0 mm 4 m/s 762 mmHg 73%
    08:00 +3°C° 0 mm 5 m/s 761 mmHg 65%
    09:00 +5°C° 0 mm 6 m/s 761 mmHg 58%
    10:00 +7°C° 0 mm 6 m/s 760 mmHg 50%
    11:00 +6°C° 0.2 mm 7 m/s 760 mmHg 54%
    12:00 +6°C° 0.2 mm 8 m/s 759 mmHg 59%
    13:00 +6°C° 0.2 mm 9 m/s 759 mmHg 63%
    14:00 +6°C° 0.4 mm 9 m/s 759 mmHg 61%
    15:00 +6°C° 0.4 mm 8 m/s 759 mmHg 59%
    16:00 +5°C° 0.4 mm 8 m/s 758 mmHg 57%
    17:00 +5°C° 0.1 mm 7 m/s 759 mmHg 59%
    18:00 +4°C° 0.1 mm 6 m/s 759 mmHg 61%
    19:00 +3°C° 0.1 mm 6 m/s 759 mmHg 62%
    20:00 +3°C° 0.1 mm 6 m/s 759 mmHg 64%
    21:00 +2°C° 0.1 mm 7 m/s 759 mmHg 65%
    22:00 +2°C° 0.1 mm 7 m/s 759 mmHg 66%
    23:00 0°C° 0.2 mm 7 m/s 758 mmHg 65%

    26 Martie, Marţi

    Timp Temperatura Precipitaţii Vânt Presiune Umiditate
    00:00 0°C° 0.2 mm 7 m/s 758 mmHg 64%
    01:00 0°C° 0.2 mm 8 m/s 758 mmHg 63%
    02:00 -1°C° 0 mm 7 m/s 758 mmHg 64%
    03:00 -1°C° 0 mm 7 m/s 758 mmHg 64%
    04:00 -2°C° 0 mm 7 m/s 758 mmHg 64%
    05:00 -2°C° 0 mm 7 m/s 758 mmHg 64%
    06:00 -2°C° 0 mm 7 m/s 759 mmHg 63%
    07:00 -2°C° 0 mm 7 m/s 759 mmHg 62%
    08:00 -1°C° 0 mm 7 m/s 760 mmHg 59%
    09:00 0°C° 0 mm 8 m/s 760 mmHg 57%
    10:00 +2°C° 0 mm 8 m/s 761 mmHg 54%
    11:00 +2°C° 0 mm 8 m/s 761 mmHg 55%
    12:00 +2°C° 0 mm 8 m/s 761 mmHg 57%
    13:00 +4°C° 0 mm 7 m/s 762 mmHg 58%
    14:00 +4°C° 0 mm 7 m/s 762 mmHg 58%
    15:00 +4°C° 0 mm 7 m/s 763 mmHg 57%
    16:00 +4°C° 0 mm 6 m/s 763 mmHg 57%
    17:00 +5°C° 0 mm 5 m/s 764 mmHg 61%
    18:00 +4°C° 0 mm 4 m/s 765 mmHg 65%
    19:00 +3°C° 0 mm 3 m/s 765 mmHg 70%
    20:00 +3°C° 0 mm 3 m/s 766 mmHg 73%
    21:00 +2°C° 0 mm 3 m/s 766 mmHg 75%
    22:00 +3°C° 0 mm 2 m/s 766 mmHg 78%
    23:00 +1°C° 0 mm 3 m/s 767 mmHg 80%
    Arată mai mult